Home   Weather   Patras   Past weeks
Flag for Greece

Past Weather in Patras, Greece — Yesterday and Last 2 Weeks

Now
66 °F

Clear.


Feels Like: 66 °F
Forecast: 81 / 60 °F
Wind: No wind

Location: Araxos Airport

Current Time: Oct 20, 2019 at 8:00:54 pm

Latest Report: Oct 20, 2019 at 7:20 pm


Visibility: 10 mi

Pressure: 30.09 "Hg

Humidity: 83%

Dew Point: 61 °F

Location of PatrasLocation

Past Weather in Patras — Graph

°F

Patras Temperature Yesterday

Maximum temperature yesterday: 79 °F (at 3:20 pm)
Minimum temperature yesterday: 55 °F (at 6:20 am)
Average temperature yesterday: 67 °F

High & Low Weather Summary for the Past Weeks

 TemperatureHumidityPressure
High82 °F (Oct 11, 3:20 pm)100% (Oct 6, 12:50 am)30.18 "Hg (Oct 6, 12:50 am)
Low54 °F (Oct 20, 7:20 am)44% (Oct 5, 6:20 pm)29.65 "Hg (Oct 7, 7:50 pm)
Average70 °F78%30.03 "Hg
* Reported Oct 5 6:20 pm — Oct 20 6:50 pm, Patras. Weather by CustomWeather, © 2019

Note: Actual official high and low records may vary slightly from our data, if they occured in-between our weather recording intervals... More about our weather records

Advertising

Patras Weather History for the Previous 24 Hours

Scroll right to see more
 ConditionsComfort  
Time TempWeatherWind HumidityBarometerVisibility
6:50 pm
Sun, Oct 20
72 °FClear.No wind69%30.09 "Hg10 mi
6:20 pm75 °FSunny.3 mph57%30.09 "Hg10 mi
5:50 pm77 °FSunny.3 mph47%30.09 "Hg10 mi
5:20 pm77 °FSunny.5 mph54%30.09 "Hg10 mi
4:50 pm77 °FSunny.5 mph54%30.09 "Hg10 mi
4:20 pm77 °FSunny.5 mph57%30.09 "Hg10 mi
3:50 pm77 °FSunny.5 mph57%30.09 "Hg10 mi
3:20 pm77 °FSunny.5 mph54%30.09 "Hg10 mi
2:50 pm79 °FSunny.5 mph48%30.12 "Hg10 mi
2:20 pm77 °FSunny.3 mph51%30.12 "Hg10 mi
1:50 pm77 °FSunny.No wind47%30.12 "Hg10 mi
1:20 pm77 °FSunny.No wind57%30.15 "Hg10 mi
12:50 pm75 °FSunny.No wind61%30.15 "Hg10 mi
12:20 pm75 °FSunny.No wind57%30.15 "Hg10 mi
11:50 am75 °FSunny.No wind61%30.15 "Hg10 mi
11:20 am73 °FSunny.No wind65%30.15 "Hg10 mi
10:50 am72 °FSunny.No wind69%30.15 "Hg10 mi
10:20 am68 °FSunny.No wind83%30.15 "Hg10 mi
9:50 am64 °FSunny.No wind94%30.15 "Hg10 mi
9:20 am61 °FSunny.No wind100%30.12 "Hg10 mi
8:50 am57 °FSunny.No wind100%30.12 "Hg10 mi
8:20 am55 °FSunny.No wind100%30.12 "Hg10 mi
7:50 am55 °FSunny.No wind100%30.12 "Hg10 mi
7:20 am54 °FClear.No wind100%30.09 "Hg10 mi
6:50 am55 °FClear.No wind100%30.09 "Hg10 mi
6:20 am55 °FClear.No wind100%30.09 "Hg10 mi
5:50 am55 °FClear.No wind100%30.09 "Hg10 mi
4:50 am55 °FClear.No wind100%30.09 "Hg10 mi
3:50 am55 °FClear.No wind100%30.09 "Hg10 mi
2:50 am57 °FClear.No wind100%30.09 "Hg10 mi
1:50 am59 °FClear.No wind100%30.09 "Hg10 mi
12:50 am59 °FClear.No wind100%30.09 "Hg10 mi
11:50 pm
Sat, Oct 19
59 °FClear.No wind100%30.09 "Hg10 mi
10:50 pm61 °FClear.No wind100%30.09 "Hg10 mi
9:50 pm63 °FClear.No wind94%30.09 "Hg10 mi
8:50 pm64 °FClear.2 mph88%30.09 "Hg10 mi
8:20 pm66 °FClear.No wind88%30.07 "Hg10 mi
Weather by CustomWeather, © 2019

See weather overview